TimeCET,TemperatureF,Dew PointF,Humidity,Sea Level PressureIn,VisibilityMPH,Wind Direction,Wind SpeedMPH,Gust SpeedMPH,PrecipitationIn,Events,Conditions,WindDirDegrees,DateUTC
12:00 AM,23.0,21.2,93,29.56,4.3,East,5.8,-,N/A,Snow,Light Snow,80,2013-03-11 23:00:00
1:00 AM,23.0,19.4,86,29.56,3.7,NNE,4.6,-,N/A,Snow,Light Snow,30,2013-03-12 00:00:00
2:00 AM,23.0,19.4,86,29.56,1.8,NE,3.5,-,N/A,Snow,Light Snow,50,2013-03-12 01:00:00
3:00 AM,23.0,19.4,86,29.53,3.1,NE,3.5,-,N/A,Snow,Light Snow,50,2013-03-12 02:00:00
4:00 AM,21.2,19.4,93,29.53,3.7,NE,4.6,-,N/A,Snow,Light Snow,50,2013-03-12 03:00:00
5:00 AM,21.2,19.4,93,29.53,2.5,NE,3.5,-,N/A,Snow,Light Snow,40,2013-03-12 04:00:00
5:30 AM,21.2,19.4,93,29.50,3.1,NE,3.5,-,N/A,Snow,Light Snow,40,2013-03-12 04:30:00
6:00 AM,23.0,19.4,86,29.50,3.1,ENE,4.6,-,N/A,Snow,Light Snow,60,2013-03-12 05:00:00
6:30 AM,23.0,19.4,86,29.50,1.9,ENE,3.5,-,N/A,,Overcast,70,2013-03-12 05:30:00
7:00 AM,21.2,19.4,93,29.50,-9999.0,NE,3.5,-,N/A,,Overcast,40,2013-03-12 06:00:00
7:30 AM,23.0,19.4,86,29.50,4.3,NE,4.6,-,N/A,,Mostly Cloudy,50,2013-03-12 06:30:00
7:38 AM,23.0,19.4,86,29.50,-9999.0,NE,4.6,-,N/A,Snow,Light Snow,50,2013-03-12 06:38:00
8:00 AM,23.0,19.4,86,29.50,4.3,NE,5.8,-,N/A,Snow,Light Snow,40,2013-03-12 07:00:00
8:30 AM,23.0,19.4,86,29.50,5.0,ENE,5.8,-,N/A,,Overcast,60,2013-03-12 07:30:00
9:00 AM,23.0,19.4,86,29.50,5.0,NE,6.9,-,N/A,,Overcast,50,2013-03-12 08:00:00
9:30 AM,23.0,19.4,86,29.50,5.0,NNE,6.9,-,N/A,,Overcast,30,2013-03-12 08:30:00
10:00 AM,23.0,19.4,86,29.50,4.3,ENE,8.1,-,N/A,,Overcast,60,2013-03-12 09:00:00
10:30 AM,23.0,19.4,86,29.50,5.0,NE,8.1,-,N/A,,Overcast,50,2013-03-12 09:30:00
11:00 AM,23.0,19.4,86,29.50,5.0,NE,6.9,-,N/A,,Overcast,40,2013-03-12 10:00:00
11:30 AM,23.0,19.4,86,29.50,6.2,ENE,10.4,-,N/A,,Overcast,60,2013-03-12 10:30:00
12:00 PM,23.0,19.4,86,29.50,6.2,NE,8.1,-,N/A,,Overcast,50,2013-03-12 11:00:00
12:30 PM,23.0,19.4,86,29.50,6.2,NE,5.8,-,N/A,,Overcast,50,2013-03-12 11:30:00
1:00 PM,23.0,21.2,93,29.47,6.2,NE,8.1,-,N/A,,Overcast,40,2013-03-12 12:00:00
1:30 PM,23.0,19.4,86,29.47,6.2,NE,6.9,-,N/A,Snow,Light Snow,40,2013-03-12 12:30:00
2:00 PM,23.0,19.4,86,29.47,6.2,NE,9.2,-,N/A,Snow,Light Snow,50,2013-03-12 13:00:00
2:18 PM,23.0,21.2,93,29.47,2.5,NE,8.1,-,N/A,Snow,Light Snow,50,2013-03-12 13:18:00
2:30 PM,23.0,19.4,86,29.47,4.3,NE,8.1,-,N/A,Snow,Light Snow,50,2013-03-12 13:30:00
3:00 PM,23.0,19.4,86,29.47,6.2,NE,5.8,-,N/A,,Overcast,50,2013-03-12 14:00:00
3:30 PM,23.0,19.4,86,29.44,6.2,ENE,8.1,-,N/A,,Overcast,60,2013-03-12 14:30:00
3:45 PM,23.0,19.4,86,29.44,3.7,ENE,9.2,-,N/A,Snow,Light Snow,70,2013-03-12 14:45:00
3:50 PM,23.0,19.4,86,29.44,1.4,ENE,9.2,-,N/A,Snow,Light Snow,70,2013-03-12 14:50:00
4:00 PM,23.0,19.4,86,29.44,1.1,ENE,10.4,-,N/A,Snow,Light Snow,70,2013-03-12 15:00:00
4:30 PM,23.0,19.4,86,29.44,0.9,ENE,9.2,-,N/A,Snow,Light Snow,70,2013-03-12 15:30:00
4:43 PM,23.0,19.4,86,29.44,0.9,ENE,6.9,-,N/A,Snow,Light Snow,70,2013-03-12 15:43:00
5:00 PM,23.0,19.4,86,29.44,1.1,NE,5.8,-,N/A,Snow,Light Snow,50,2013-03-12 16:00:00
5:30 PM,21.2,19.4,93,29.44,4.3,NNE,6.9,-,N/A,Snow,Light Snow,30,2013-03-12 16:30:00
6:00 PM,21.2,19.4,93,29.44,5.0,ENE,8.1,-,N/A,Snow,Light Snow,60,2013-03-12 17:00:00
6:30 PM,21.2,19.4,93,29.44,5.0,NE,9.2,-,N/A,Snow,Light Snow,50,2013-03-12 17:30:00
7:00 PM,21.2,17.6,86,29.44,2.5,ENE,8.1,-,N/A,Snow,Light Snow,60,2013-03-12 18:00:00
7:30 PM,21.2,17.6,86,29.44,2.5,NE,8.1,-,N/A,Snow,Light Snow,50,2013-03-12 18:30:00
8:00 PM,21.2,17.6,86,29.42,4.3,ENE,10.4,-,N/A,Snow,Light Snow,70,2013-03-12 19:00:00
8:34 PM,21.2,17.6,86,29.44,1.2,ENE,6.9,-,N/A,Snow,Light Snow,60,2013-03-12 19:34:00
9:00 PM,21.2,17.6,86,29.44,-9999.0,ENE,9.2,-,N/A,Snow,Light Snow,60,2013-03-12 20:00:00
10:00 PM,21.2,17.6,86,29.44,3.1,ENE,8.1,-,N/A,Snow,Light Snow,60,2013-03-12 21:00:00
11:00 PM,21.2,17.6,86,29.44,2.5,ENE,5.8,-,N/A,Snow,Light Snow,70,2013-03-12 22:00:00